STARLINK-1944, 46796

Orbit data source: Space-Track

STARLINK-1944, 46796 is a payload satellite owned by SpaceX/Seattle (US) in LEO that was launched on Sat, 24 Oct 2020 UTC via an FALCON 9 launch vehicle from the Air Force Eastern Test Range (AFETR). Payload-class satellites include a variety of spacecraft equipped with specific instruments for various scientific and technological missions. These include communications satellites like Starlink; space stations such as the ISS; scientific satellites like the Hubble; Earth observation satellites from companies like Planet Labs, Umbra, and HawkEye 360; GPS; miniature CubeSats for education and research; and military/defense satellites.

Loading next visibility...
Identifier
46796, 2020-074BK
Orbit
LEO
Country
Flag of USUS
Related business
Manufacturer
SpaceX/Seattle
Mission
Operational Commercial Communications
Bus & Motor
STARLINK, Unknown motor
Mass
260 kg wet, ~248 kg dry
Launch date (UTC)
2020-10-24 (5 years ago)
Launch vehicle
FALCON 9
Launch site
Air Force Eastern Test Range (AFETR)
Object type
Payload
Rocket body
Debris
Shape & HBR
Box + 1 Pan, 10.1 m
Radar Cross Section
13.562 m², Large (>1 m²)

Expand to show TLE details & history
Last TLE update: 6 hours ago

TLE from 6 hours ago
0 STARLINK-1944
1 46796U 20074BK  25299.00003472  .02035397  00000-0  89384-1 0  9990
2 46796  53.0536 196.0041 0001747  81.9915 352.7656 15.18367889  5756
Epoch: 2025-10-26T00:00Z
TLE epoch observation values (Epoch: 2025-10-26T00:00:02.999Z)
Latitude
50.59969°
Longitude
-133.04823°
Altitude
515.53 km
Speed
7.613 km/s
True Right ascension
17h 26m 20s
True Declination
50° 25' 30"
Sunlit
Object was in daylight at epoch
Visualization orbit readout
Latitude
Unknown
Longitude
Unknown
Altitude
Unknown
Speed
Unknown
Apparent Right ascension
Unknown
Apparent Declination
Unknown
Sunlit
N/A
Visualization observer readout
Local Sidereal Time
00:57:05
Azimuth
Unknown
Elevation
Unknown
Doppler factor
Unknown
Orbital elements
Apogee altitude
512.249 km
Perigee altitude
509.842 km
Semi-major axis
6,889.182 km
Eccentricity
0.00017
Inclination
53.0536°
RAAN
196.0041°
Arg. of periapsis
81.9915°
True anomaly
352.76308°
Mean anomaly
352.7656°
Eccentric anomaly
352.76434°
Mean motion
3.7957 °/min
Orbital period
94.84 mins
BSTAR
0.089384
Loading maneuver chart data...
Computing Atmospheric mass density...

Documentation

Showing up to 5 results
|